Tracking 20083 objects as of 12-Dec-2019
HD Live streaming from Space Station
objects crossing your sky now

FENGYUN 1C DEB

Track FENGYUN 1C DEB now!
10-day predictions


NORAD ID: 36991
Int'l Code: 1999-025EBX
Perigee: 811.6 km
Apogee: 1,231.4 km
Inclination: 98.1 °
Period: 105.4 minutes
Semi major axis: 7392 km
RCS: 0.0013 m2 (small)
Launch date: May 10, 1999
Source: People's Republic of China (PRC)
Launch site: Taiyaun Space Center, China (TSC)

Note: This is SATELLITE DEBRIS
aabbcc
Your satellite tracking list
Your tracking list is empty




NASA's NSSDC Master Catalog

Two Line Element Set (TLE):
1 36991U 99025EBX 19342.44563885  .00000443  00000-0  43943-3 0  9992
2 36991  98.1112 335.7949 0283920 178.6424 181.5559 13.65880576604438
Source of the keplerian elements: AFSPC